When you browse on this site, cookies collect data to enhance your experience and personalize the content and advertising you see.
Visit our Privacy Policy to learn more. By continuing to use the site, you agree to this use of cookies and data.
  • în România
  • Lista ţărilor
  • Pe 7 zile
  • Temperatura apei
  • Meteo pe hartă
  • Widget-uri
  • user-avatar
    Intrare

    Meteo pe oră la Rawson

    Astăzi, 16 Decembrie, Luni

    Timp Temperatura Precipitaţii Vânt Presiune Umiditate
    00:00 +17°C° 0 mm 4 m/s 757 mmHg 44%
    01:00 +16°C° 0 mm 6 m/s 756 mmHg 40%
    02:00 +16°C° 0 mm 9 m/s 757 mmHg 36%
    03:00 +16°C° 0 mm 9 m/s 757 mmHg 38%
    04:00 +15°C° 0 mm 8 m/s 757 mmHg 39%
    05:00 +15°C° 0 mm 8 m/s 757 mmHg 41%
    06:00 +16°C° 0 mm 8 m/s 757 mmHg 39%
    07:00 +17°C° 0 mm 7 m/s 757 mmHg 38%
    08:00 +18°C° 0 mm 7 m/s 758 mmHg 36%
    09:00 +20°C° 0 mm 7 m/s 758 mmHg 33%
    10:00 +21°C° 0 mm 6 m/s 758 mmHg 31%
    11:00 +21°C° 0 mm 6 m/s 758 mmHg 28%
    12:00 +21°C° 0 mm 6 m/s 757 mmHg 30%
    13:00 +20°C° 0 mm 6 m/s 757 mmHg 31%
    14:00 +19°C° 0 mm 6 m/s 757 mmHg 33%
    15:00 +19°C° 0 mm 6 m/s 757 mmHg 35%
    16:00 +19°C° 0 mm 6 m/s 756 mmHg 37%
    17:00 +18°C° 0 mm 7 m/s 756 mmHg 39%
    18:00 +17°C° 0 mm 6 m/s 756 mmHg 42%
    19:00 +16°C° 0 mm 6 m/s 756 mmHg 45%
    20:00 +15°C° 0 mm 6 m/s 757 mmHg 48%
    21:00 +14°C° 0 mm 6 m/s 757 mmHg 50%
    22:00 +14°C° 0 mm 6 m/s 757 mmHg 52%
    23:00 +14°C° 0 mm 6 m/s 757 mmHg 55%

    Mâine, 17 Decembrie, Marţi

    Timp Temperatura Precipitaţii Vânt Presiune Umiditate
    00:00 +13°C° 0 mm 6 m/s 757 mmHg 57%
    01:00 +13°C° 0 mm 6 m/s 757 mmHg 60%
    02:00 +12°C° 0 mm 7 m/s 757 mmHg 63%
    03:00 +12°C° 0 mm 7 m/s 756 mmHg 63%
    04:00 +12°C° 0 mm 7 m/s 756 mmHg 64%
    05:00 +12°C° 0 mm 7 m/s 756 mmHg 65%
    06:00 +16°C° 0 mm 7 m/s 756 mmHg 53%
    07:00 +19°C° 0 mm 6 m/s 755 mmHg 42%
    08:00 +21°C° 0 mm 6 m/s 755 mmHg 30%
    09:00 +23°C° 0 mm 6 m/s 755 mmHg 26%
    10:00 +26°C° 0 mm 7 m/s 754 mmHg 23%
    11:00 +28°C° 0 mm 8 m/s 753 mmHg 19%
    12:00 +29°C° 0 mm 7 m/s 752 mmHg 18%
    13:00 +29°C° 0 mm 6 m/s 752 mmHg 18%
    14:00 +30°C° 0 mm 5 m/s 751 mmHg 17%
    15:00 +32°C° 0 mm 6 m/s 750 mmHg 17%
    16:00 +32°C° 0 mm 6 m/s 749 mmHg 17%
    17:00 +33°C° 0 mm 7 m/s 748 mmHg 17%
    18:00 +30°C° 0 mm 6 m/s 748 mmHg 20%
    19:00 +29°C° 0 mm 6 m/s 748 mmHg 22%
    20:00 +28°C° 0 mm 5 m/s 748 mmHg 25%
    21:00 +27°C° 0 mm 5 m/s 748 mmHg 27%
    22:00 +26°C° 0 mm 5 m/s 748 mmHg 30%
    23:00 +24°C° 0 mm 6 m/s 749 mmHg 32%

    Poimâine, 18 Decembrie, Miercuri

    Timp Temperatura Precipitaţii Vânt Presiune Umiditate
    00:00 +25°C° 0 mm 5 m/s 748 mmHg 35%
    01:00 +23°C° 0 mm 5 m/s 748 mmHg 37%
    02:00 +22°C° 0 mm 5 m/s 748 mmHg 40%
    03:00 +22°C° 0 mm 5 m/s 748 mmHg 40%
    04:00 +22°C° 0 mm 6 m/s 748 mmHg 41%
    05:00 +22°C° 0 mm 6 m/s 748 mmHg 41%
    06:00 +23°C° 0 mm 7 m/s 748 mmHg 37%
    07:00 +26°C° 0 mm 8 m/s 748 mmHg 33%
    08:00 +28°C° 0 mm 9 m/s 748 mmHg 29%
    09:00 +29°C° 0 mm 9 m/s 747 mmHg 27%
    10:00 +29°C° 0 mm 9 m/s 747 mmHg 25%
    11:00 +31°C° 0 mm 9 m/s 747 mmHg 23%
    12:00 +32°C° 0 mm 9 m/s 747 mmHg 22%
    13:00 +33°C° 0 mm 9 m/s 746 mmHg 21%
    14:00 +34°C° 0 mm 8 m/s 746 mmHg 19%
    15:00 +33°C° 0 mm 9 m/s 746 mmHg 20%
    16:00 +33°C° 0 mm 10 m/s 746 mmHg 20%
    17:00 +32°C° 0 mm 10 m/s 746 mmHg 20%
    18:00 +31°C° 0 mm 9 m/s 747 mmHg 19%
    19:00 +29°C° 0 mm 8 m/s 748 mmHg 19%
    20:00 +28°C° 0 mm 7 m/s 748 mmHg 18%
    21:00 +26°C° 0 mm 7 m/s 749 mmHg 19%
    22:00 +24°C° 0 mm 6 m/s 750 mmHg 20%
    23:00 +22°C° 0 mm 6 m/s 751 mmHg 21%

    19 Decembrie, Joi

    Timp Temperatura Precipitaţii Vânt Presiune Umiditate
    00:00 +21°C° 0 mm 6 m/s 752 mmHg 22%
    01:00 +20°C° 0 mm 6 m/s 752 mmHg 23%
    02:00 +19°C° 0 mm 6 m/s 753 mmHg 24%
    03:00 +19°C° 0 mm 6 m/s 753 mmHg 25%
    04:00 +17°C° 0 mm 5 m/s 754 mmHg 26%
    05:00 +16°C° 0 mm 5 m/s 754 mmHg 27%
    06:00 +17°C° 0 mm 6 m/s 755 mmHg 25%
    07:00 +19°C° 0 mm 6 m/s 755 mmHg 23%
    08:00 +20°C° 0 mm 7 m/s 756 mmHg 21%
    09:00 +21°C° 0 mm 6 m/s 756 mmHg 20%
    10:00 +22°C° 0 mm 6 m/s 756 mmHg 19%
    11:00 +23°C° 0 mm 5 m/s 757 mmHg 18%
    12:00 +25°C° 0 mm 5 m/s 756 mmHg 17%
    13:00 +26°C° 0 mm 5 m/s 756 mmHg 16%
    14:00 +27°C° 0 mm 5 m/s 756 mmHg 15%
    15:00 +24°C° 0 mm 6 m/s 756 mmHg 20%
    16:00 +23°C° 0 mm 6 m/s 756 mmHg 25%
    17:00 +21°C° 0 mm 7 m/s 756 mmHg 31%
    18:00 +20°C° 0 mm 7 m/s 756 mmHg 35%
    19:00 +18°C° 0 mm 7 m/s 757 mmHg 38%
    20:00 +16°C° 0 mm 7 m/s 757 mmHg 42%
    21:00 +16°C° 0 mm 6 m/s 757 mmHg 42%
    22:00 +16°C° 0 mm 6 m/s 758 mmHg 42%
    23:00 +16°C° 0 mm 5 m/s 758 mmHg 42%

    20 Decembrie, Vineri

    Timp Temperatura Precipitaţii Vânt Presiune Umiditate
    00:00 +17°C° 0 mm 4 m/s 758 mmHg 44%
    01:00 +16°C° 0 mm 3 m/s 758 mmHg 45%
    02:00 +16°C° 0 mm 1 m/s 758 mmHg 46%
    03:00 +16°C° 0 mm 1 m/s 758 mmHg 48%
    04:00 +16°C° 0 mm 2 m/s 759 mmHg 50%
    05:00 +16°C° 0 mm 2 m/s 759 mmHg 52%
    06:00 +17°C° 0.1 mm 2 m/s 760 mmHg 48%
    07:00 +18°C° 0.1 mm 3 m/s 760 mmHg 43%
    08:00 +20°C° 0.1 mm 3 m/s 761 mmHg 38%
    09:00 +20°C° 0 mm 3 m/s 761 mmHg 35%
    10:00 +21°C° 0 mm 3 m/s 761 mmHg 32%
    11:00 +23°C° 0 mm 2 m/s 761 mmHg 29%
    12:00 +24°C° 0 mm 3 m/s 761 mmHg 28%
    13:00 +24°C° 0 mm 3 m/s 760 mmHg 27%
    14:00 +25°C° 0 mm 3 m/s 760 mmHg 26%
    15:00 +25°C° 0 mm 4 m/s 760 mmHg 27%
    16:00 +25°C° 0 mm 4 m/s 760 mmHg 28%
    17:00 +23°C° 0 mm 5 m/s 759 mmHg 30%
    18:00 +22°C° 0 mm 5 m/s 759 mmHg 34%
    19:00 +21°C° 0 mm 5 m/s 759 mmHg 37%
    20:00 +20°C° 0 mm 6 m/s 759 mmHg 41%
    21:00 +19°C° 0 mm 6 m/s 759 mmHg 40%
    22:00 +19°C° 0 mm 6 m/s 760 mmHg 39%
    23:00 +19°C° 0 mm 6 m/s 760 mmHg 38%

    21 Decembrie, Sâmbătă

    Timp Temperatura Precipitaţii Vânt Presiune Umiditate
    00:00 +17°C° 0 mm 6 m/s 760 mmHg 40%
    01:00 +17°C° 0 mm 7 m/s 759 mmHg 43%
    02:00 +17°C° 0 mm 7 m/s 759 mmHg 46%
    03:00 +16°C° 0 mm 7 m/s 759 mmHg 48%
    04:00 +16°C° 0 mm 6 m/s 759 mmHg 50%
    05:00 +16°C° 0 mm 6 m/s 758 mmHg 53%
    06:00 +19°C° 0 mm 6 m/s 758 mmHg 45%
    07:00 +21°C° 0 mm 7 m/s 758 mmHg 38%
    08:00 +24°C° 0 mm 7 m/s 758 mmHg 31%
    09:00 +26°C° 0 mm 7 m/s 758 mmHg 27%
    10:00 +28°C° 0 mm 7 m/s 757 mmHg 23%
    11:00 +30°C° 0 mm 7 m/s 757 mmHg 19%
    12:00 +32°C° 0 mm 7 m/s 756 mmHg 17%
    13:00 +33°C° 0 mm 8 m/s 755 mmHg 16%
    14:00 +34°C° 0 mm 8 m/s 755 mmHg 14%
    15:00 +33°C° 0 mm 9 m/s 754 mmHg 15%
    16:00 +33°C° 0 mm 10 m/s 753 mmHg 16%
    17:00 +33°C° 0 mm 11 m/s 752 mmHg 17%
    18:00 +29°C° 0 mm 11 m/s 752 mmHg 22%
    19:00 +27°C° 0 mm 12 m/s 752 mmHg 27%
    20:00 +23°C° 0 mm 12 m/s 752 mmHg 32%
    21:00 +23°C° 0 mm 11 m/s 752 mmHg 33%
    22:00 +23°C° 0 mm 10 m/s 753 mmHg 34%
    23:00 +23°C° 0 mm 9 m/s 753 mmHg 35%
    Arată mai mult